sat.trackr.live / text

‹ back to catalog

STARLINK-4310

NORAD 53074 · 2022-077AH

PAYLOAD ACTIVE UNKNOWN

§ Identity

Operator
Country
US
Launch date
2022-07-11
Launch site
AFWTR
Launch vehicle
Mass (kg)
RCS (m²)

Purposes: comms

External: N2YO · Heavens-Above · Gunter

§ Orbital elements

Epoch: 2026-08-29T07:02:42.434880Z

Period
88.11 min
Inclination
97.5662°
Eccentricity
0.0006462
Mean motion
16.34303096 rev/d
Perigee alt
176.8 km
Apogee alt
185.2 km
Semi-major
6,559.1 km
B*
6.3578e-4
RAAN
69.2497°
Arg perigee
272.7740°
Mean anomaly
87.2816°
Rev number
22,748

§ Raw data

STARLINK-43101 53074U 22077AH  26241.29354670  .04209684  26113-5  63578-3 0  99912 53074  97.5662  69.2497 0006462 272.7740  87.2816 16.34303096227480

JSON: /api/v1/satellites/53074 · /tle

For live sub-satellite position, see the globe view (requires WebGL).

§ Visibility from observer

Set your observer location to see the next 7 days of passes ≥ 10°. The values pass through the URL so the page stays shareable.

No JS? Fill the form by hand. The geolocation button needs JavaScript.